Jackson Hawkins Field, MS

4:51 PM CST on December 17, 2017 (GMT -0600)
Hawkins

Weather History for KHKS - May, 2012

Change the Weather History Date:

Monday, May 14, 2012

  Actual Average (KJAN) Record (KJAN)
Temperature  
Mean Temperature 70 °F -  
Max Temperature 82 °F 83 °F 92 °F (1991)
Min Temperature 59 °F 60 °F 42 °F (1971)
Cooling Degree Days 6    
Growing Degree Days 20 (Base 50)    
Moisture  
Dew Point 59 °F    
Average Humidity 78    
Maximum Humidity 100    
Minimum Humidity 39    
Precipitation  
Precipitation 0.01 in - - ()
Sea Level Pressure  
Sea Level Pressure 30.01 in    
Wind  
Wind Speed 1 mph (NW)    
Max Wind Speed 10 mph    
Max Gust Speed -    
Visibility 5 miles    
Events Fog    
Averages and records for this station are not official NWS values.
T = Trace of Precipitation, MM = Missing Value Source: NWS Daily Summary

Daily Weather History Graph

Daily Weather History Graph

Search for Another Location

Airport or City:

Trip Planner

Search our weather history database for the weather conditions in past years. The results will help you decide how hot, cold, wet, or windy it might be!

Date:

Astronomy

May. 14, 2012 Rise Set
Actual Time 6:03 AM CDT 7:51 PM CDT
Civil Twilight 5:36 AM CDT 8:18 PM CDT
Nautical Twilight 5:03 AM CDT 8:51 PM CDT
Astronomical Twilight 4:29 AM CDT 9:25 PM CDT
Moon 2:18 AM CDT (5/14) 2:30 PM CDT (5/14)
Length of Visible Light 14h 42m
Length of Day
13h 48m
Waning Crescent, 32% of the Moon is Illuminated
May 14
Waning Crescent
May 20
New
May 28
First Quarter
Jun 4
Full
Jun 11
Last Quarter

Hourly Weather History & Observations

Time (CDT) Temp. Heat Index Dew Point Humidity Pressure Visibility Wind Dir Wind Speed Gust Speed Precip Events Conditions
12:34 AM 62.6 °F - 60.8 °F 94% 30.04 in 1.8 mi Calm Calm - N/A   Clear
12:39 AM 62.6 °F - 60.8 °F 94% 30.04 in 0.2 mi Calm Calm - N/A Fog Fog
12:53 AM 63.0 °F - 61.0 °F 93% 30.02 in 0.8 mi Calm Calm - N/A   Mist
12:56 AM 62.6 °F - 60.8 °F 94% 30.04 in 1.5 mi Calm Calm - N/A   Partly Cloudy
12:59 AM 62.6 °F - 60.8 °F 94% 30.04 in 3.0 mi Calm Calm - N/A   Partly Cloudy
1:53 AM 63.0 °F - 61.0 °F 93% 30.01 in 3.0 mi Calm Calm - N/A   Clear
2:18 AM 62.6 °F - 60.8 °F 94% 30.02 in 2.5 mi Calm Calm - N/A   Clear
2:32 AM 62.6 °F - 60.8 °F 94% 30.01 in 3.0 mi NW 4.6 mph - N/A   Clear
2:53 AM 62.1 °F - 60.1 °F 93% 29.99 in 3.0 mi NW 4.6 mph - N/A   Clear
3:53 AM 62.1 °F - 60.1 °F 93% 29.99 in 3.0 mi Calm Calm - N/A   Clear
4:08 AM 60.8 °F - 59.0 °F 94% 30.00 in 2.5 mi NW 3.5 mph - 0.01 in   Clear
4:53 AM 61.0 °F - 60.1 °F 97% 29.99 in 2.5 mi Calm Calm - 0.01 in   Clear
5:14 AM 60.8 °F - 60.8 °F 100% 30.01 in 1.8 mi Calm Calm - N/A   Mostly Cloudy
5:22 AM 60.8 °F - 60.8 °F 100% 30.01 in 2.5 mi Calm Calm - N/A   Mostly Cloudy
5:40 AM 59.0 °F - 57.2 °F 94% 30.02 in 1.0 mi Calm Calm - N/A   Mostly Cloudy
5:53 AM 60.1 °F - 57.9 °F 93% 30.00 in 2.5 mi Calm Calm - N/A   Mostly Cloudy
6:07 AM 60.8 °F - 57.2 °F 88% 30.03 in 1.2 mi Calm Calm - N/A   Partly Cloudy
6:17 AM 60.8 °F - 59.0 °F 94% 30.03 in 0.8 mi Calm Calm - N/A   Scattered Clouds
6:29 AM 60.8 °F - 59.0 °F 94% 30.04 in 1.2 mi Calm Calm - N/A   Mostly Cloudy
6:53 AM 61.0 °F - 59.0 °F 93% 30.01 in 1.8 mi Calm Calm - N/A   Partly Cloudy
6:59 AM 60.8 °F - 60.8 °F 100% 30.03 in 3.0 mi Calm Calm - N/A   Partly Cloudy
7:53 AM 64.9 °F - 62.1 °F 90% 30.03 in 4.0 mi Calm Calm - N/A   Clear
8:53 AM 70.0 °F - 62.1 °F 76% 30.04 in 10.0 mi NW 3.5 mph - N/A   Clear
9:53 AM 73.0 °F - 62.1 °F 68% 30.04 in 10.0 mi NW 4.6 mph - N/A   Clear
10:53 AM 75.9 °F - 62.1 °F 62% 30.05 in 10.0 mi NW 6.9 mph - N/A   Clear
11:53 AM 79.0 °F - 60.1 °F 52% 30.04 in 10.0 mi Variable 4.6 mph - N/A   Partly Cloudy
12:53 PM 80.1 °F 80.7 °F 59.0 °F 48% 30.02 in 10.0 mi NW 8.1 mph - N/A   Partly Cloudy
1:53 PM 81.0 °F 80.8 °F 55.9 °F 42% 30.00 in 10.0 mi NNW 8.1 mph - N/A   Scattered Clouds
2:53 PM 81.0 °F 80.7 °F 55.0 °F 41% 29.99 in 10.0 mi Variable 4.6 mph - N/A   Scattered Clouds
3:53 PM 82.0 °F 81.4 °F 55.0 °F 39% 29.97 in 10.0 mi North 5.8 mph - N/A   Partly Cloudy
4:53 PM 81.0 °F 80.5 °F 54.0 °F 39% 29.96 in 10.0 mi North 5.8 mph - N/A   Clear
5:53 PM 81.0 °F 80.5 °F 54.0 °F 39% 29.94 in 10.0 mi North 10.4 mph - N/A   Clear
6:53 PM 79.0 °F - 55.0 °F 44% 29.95 in 10.0 mi Calm Calm - N/A   Clear
7:53 PM 75.0 °F - 55.9 °F 51% 29.95 in 10.0 mi Calm Calm - N/A   Clear
8:53 PM 70.0 °F - 57.9 °F 65% 29.97 in 10.0 mi Calm Calm - N/A   Clear
10:53 PM 66.0 °F - 59.0 °F 78% 30.00 in 10.0 mi Calm Calm - N/A   Clear
11:53 PM 64.0 °F - 59.0 °F 84% 29.99 in 10.0 mi NW 5.8 mph - N/A   Clear